TimeEST,TemperatureF,Dew PointF,Humidity,Sea Level PressureIn,VisibilityMPH,Wind Direction,Wind SpeedMPH,Gust SpeedMPH,PrecipitationIn,Events,Conditions,WindDirDegrees,DateUTC
12:53 AM,28.0,23.0,81,30.24,10.0,West,6.9,-,N/A,,Overcast,270,2013-01-09 05:53:00
1:07 AM,28.4,23.0,80,30.21,10.0,West,6.9,-,N/A,,Overcast,260,2013-01-09 06:07:00
1:53 AM,28.0,24.1,85,30.27,10.0,WNW,3.5,-,N/A,,Overcast,300,2013-01-09 06:53:00
2:53 AM,27.0,23.0,85,30.27,10.0,WNW,6.9,-,N/A,,Overcast,290,2013-01-09 07:53:00
3:53 AM,26.1,21.9,84,30.28,10.0,Calm,Calm,-,N/A,,Mostly Cloudy,0,2013-01-09 08:53:00
4:09 AM,26.6,21.2,80,30.24,10.0,Calm,Calm,-,N/A,,Overcast,0,2013-01-09 09:09:00
4:16 AM,26.6,21.2,80,30.25,10.0,NNW,3.5,-,N/A,,Overcast,340,2013-01-09 09:16:00
4:53 AM,26.1,19.0,75,30.28,10.0,NNW,4.6,-,N/A,,Overcast,340,2013-01-09 09:53:00
5:53 AM,25.0,18.0,75,30.29,10.0,North,3.5,-,N/A,,Overcast,350,2013-01-09 10:53:00
6:53 AM,25.0,18.0,75,30.31,10.0,Calm,Calm,-,N/A,,Overcast,0,2013-01-09 11:53:00
7:31 AM,21.2,21.2,100,30.28,2.0,SE,6.9,-,N/A,,Overcast,140,2013-01-09 12:31:00
7:46 AM,21.2,21.2,100,30.28,4.0,SE,5.8,-,N/A,,Scattered Clouds,140,2013-01-09 12:46:00
7:53 AM,21.9,19.9,92,30.32,8.0,SE,4.6,-,N/A,,Scattered Clouds,130,2013-01-09 12:53:00
8:17 AM,21.2,21.2,100,30.27,2.5,SSE,6.9,-,N/A,,Partly Cloudy,160,2013-01-09 13:17:00
8:27 AM,21.2,21.2,100,30.27,1.8,South,4.6,-,N/A,,Partly Cloudy,170,2013-01-09 13:27:00
8:35 AM,23.0,21.2,93,30.27,2.5,South,3.5,-,N/A,,Partly Cloudy,170,2013-01-09 13:35:00
8:42 AM,23.0,21.2,93,30.26,3.0,South,4.6,-,N/A,,Partly Cloudy,180,2013-01-09 13:42:00
8:53 AM,21.9,21.0,96,30.30,4.0,South,3.5,-,N/A,,Partly Cloudy,170,2013-01-09 13:53:00
9:11 AM,21.2,21.2,100,30.24,4.0,South,3.5,-,N/A,,Mostly Cloudy,170,2013-01-09 14:11:00
9:20 AM,23.0,21.2,93,30.23,4.0,SSE,4.6,-,N/A,,Mostly Cloudy,160,2013-01-09 14:20:00
9:44 AM,23.0,21.2,93,30.23,5.0,South,5.8,-,N/A,,Overcast,180,2013-01-09 14:44:00
9:53 AM,24.1,21.9,91,30.26,6.0,South,4.6,-,N/A,,Overcast,170,2013-01-09 14:53:00
10:45 AM,24.8,21.2,86,30.20,7.0,South,5.8,-,N/A,,Overcast,170,2013-01-09 15:45:00
10:53 AM,25.0,21.9,88,30.23,8.0,South,9.2,-,N/A,,Overcast,170,2013-01-09 15:53:00
11:53 AM,26.1,21.9,84,30.17,7.0,SSE,11.5,-,N/A,,Overcast,150,2013-01-09 16:53:00
12:36 PM,26.6,23.0,86,30.10,8.0,SSE,11.5,-,N/A,,Mostly Cloudy,150,2013-01-09 17:36:00
12:53 PM,27.0,23.0,85,30.13,8.0,SSE,11.5,-,N/A,,Mostly Cloudy,150,2013-01-09 17:53:00
1:08 PM,28.4,23.0,80,30.06,9.0,SE,11.5,-,N/A,,Scattered Clouds,140,2013-01-09 18:08:00
1:25 PM,28.4,21.2,74,30.03,10.0,SE,12.7,-,N/A,,Mostly Cloudy,130,2013-01-09 18:25:00
1:53 PM,28.0,21.9,78,30.06,10.0,SE,11.5,-,N/A,,Partly Cloudy,140,2013-01-09 18:53:00
2:53 PM,27.0,21.9,81,30.01,10.0,SSE,13.8,-,N/A,,Clear,150,2013-01-09 19:53:00
3:53 PM,27.0,21.0,78,29.99,10.0,SSE,11.5,-,N/A,,Clear,150,2013-01-09 20:53:00
4:53 PM,27.0,21.9,81,29.92,10.0,ESE,8.1,-,N/A,,Overcast,120,2013-01-09 21:53:00
5:53 PM,28.0,21.9,78,29.90,10.0,SSE,10.4,-,N/A,,Overcast,150,2013-01-09 22:53:00
6:41 PM,28.4,24.8,86,29.80,2.5,SSE,12.7,-,0.00,Snow,Light Snow,150,2013-01-09 23:41:00
6:53 PM,28.9,25.0,85,29.83,2.5,SSE,12.7,-,0.00,Snow,Light Snow,160,2013-01-09 23:53:00
6:57 PM,28.4,24.8,86,29.79,1.8,SSE,10.4,-,0.00,Snow,Light Snow,160,2013-01-09 23:57:00
7:00 PM,28.4,24.8,86,29.79,1.2,South,11.5,-,N/A,Snow,Light Snow,170,2013-01-10 00:00:00
7:17 PM,28.4,26.6,93,29.77,1.8,SSE,10.4,-,0.00,Snow,Light Snow,160,2013-01-10 00:17:00
7:24 PM,28.4,26.6,93,29.76,2.5,SSE,9.2,-,0.00,Snow,Light Snow,160,2013-01-10 00:24:00
7:36 PM,28.4,26.6,93,29.76,1.8,SSE,10.4,-,0.00,Snow,Light Snow,150,2013-01-10 00:36:00
7:40 PM,28.4,26.6,93,29.75,1.2,SSE,8.1,-,0.00,Snow,Light Snow,150,2013-01-10 00:40:00
7:53 PM,28.0,26.1,92,29.79,1.0,SSE,9.2,-,0.00,Snow,Light Snow,150,2013-01-10 00:53:00
7:58 PM,28.4,26.6,93,29.74,0.8,SE,8.1,-,0.01,Snow,Light Snow,140,2013-01-10 00:58:00
8:53 PM,28.0,27.0,96,29.73,0.2,SSE,11.5,-,0.02,Fog-Snow,Snow,150,2013-01-10 01:53:00
9:28 PM,28.4,26.6,93,29.66,1.5,SSE,9.2,-,0.00,Snow,Light Snow,150,2013-01-10 02:28:00
9:51 PM,28.4,26.6,93,29.65,1.2,SSE,9.2,-,0.00,Snow,Light Snow,150,2013-01-10 02:51:00
9:53 PM,28.0,28.0,100,29.69,1.0,SSE,9.2,-,0.00,Snow,Light Snow,150,2013-01-10 02:53:00
10:10 PM,28.4,28.4,100,29.65,1.8,SSE,9.2,-,0.00,Snow,Light Snow,160,2013-01-10 03:10:00
10:17 PM,28.4,28.4,100,29.64,3.0,SSE,9.2,-,0.00,Snow,Light Snow,160,2013-01-10 03:17:00
10:53 PM,28.9,28.9,100,29.66,3.0,Variable,3.5,-,0.00,Snow,Light Snow,0,2013-01-10 03:53:00
11:35 PM,30.2,28.4,93,29.61,2.5,SSW,6.9,-,0.00,Snow,Light Snow,210,2013-01-10 04:35:00
11:43 PM,28.4,28.4,100,29.61,1.5,SSW,8.1,-,0.00,Snow,Light Snow,200,2013-01-10 04:43:00
11:53 PM,28.9,28.9,100,29.64,1.8,SW,5.8,-,0.00,Snow,Light Snow,220,2013-01-10 04:53:00